Wind_Speed
3 2 2 1 1 1 2 2 2 3 4 4 5 6 7 8 8 9 9 10 10 11 12 13 13 14 14 15 15 16 16 16 17 17 18 18 17 17 17 17 17 17 17
4 4 4 3 3 3 3 4 4 4 5 5 6 7 8 9 10 10 11 12 12 13 13 13 14 15 16 16 17 17 17 17 18 18 18 18 18 18 18 18 18 18 18
6 6 6 6 5 5 5 5 5 6 6 7 7 8 9 10 11 12 12 13 13 13 14 15 15 16 16 17 18 18 19 19 19 19 19 19 19 19 19 19 19 19 19
7 7 7 7 7 8 7 6 7 8 8 9 9 9 10 11 12 13 13 14 14 14 15 16 16 17 18 18 18 19 19 20 20 20 21 21 20 21 20 20 20 21 20
9 8 8 8 9 9 8 8 9 10 10 10 10 11 11 12 12 13 13 14 15 15 16 17 18 19 19 19 20 20 20 21 21 22 22 22 22 22 22 22 22 22 21
11 11 10 11 11 10 10 10 11 12 12 12 12 13 13 13 14 14 15 16 16 17 18 18 19 20 20 21 21 21 22 22 22 23 23 23 23 23 23 23 22 22 22
13 13 13 13 13 12 12 12 13 13 14 14 14 14 15 15 15 16 17 18 18 19 19 20 20 21 21 22 22 23 24 24 24 23 23 23 23 23 23 23 23 23 23
16 15 14 14 15 14 14 14 14 15 15 15 16 16 16 17 17 18 18 19 20 21 21 22 22 23 23 24 24 25 25 25 25 25 25 24 24 24 24 24 24 24 24
18 17 17 16 16 16 16 16 16 16 17 18 19 18 20 20 20 20 20 20 21 22 23 24 24 25 25 25 25 25 26 26 27 26 26 25 25 25 25 26 25 25 24
20 19 19 18 18 18 17 18 18 18 19 20 20 21 22 21 22 23 23 23 23 24 25 25 25 25 26 26 26 26 27 27 27 27 27 26 26 26 26 26 26 25 25
22 22 21 20 21 21 20 20 21 21 21 22 22 23 23 24 24 25 26 27 27 27 26 27 27 27 28 28 28 28 28 28 28 28 28 27 27 28 27 27 26 26 26
23 23 23 23 23 23 23 23 24 24 24 24 25 25 26 26 26 27 28 29 30 30 29 30 30 30 30 30 29 29 29 29 29 29 28 28 28 28 28 28 28 28 28
25 25 25 25 25 26 26 26 27 27 27 28 28 28 28 29 29 30 30 31 32 32 32 32 32 32 32 32 31 31 30 31 31 30 30 29 29 29 29 30 29 29 28
26 25 25 26 27 28 28 28 28 28 28 29 30 30 31 31 32 32 33 33 34 34 33 33 33 33 33 33 32 33 32 32 32 32 31 30 30 30 30 30 30 30 29
27 27 27 28 28 29 29 30 30 31 32 32 33 33 33 33 33 35 36 35 35 35 35 34 34 35 34 34 33 33 34 34 34 34 33 33 32 32 32 32 32 31 31
29 29 29 29 30 30 31 31 33 33 34 34 34 34 34 35 35 36 36 36 36 36 36 35 35 35 35 35 35 35 36 36 36 35 35 35 34 33 33 33 33 32 32
29 30 31 31 32 32 33 34 34 34 35 35 35 35 35 35 36 38 38 38 38 38 37 37 36 36 36 36 36 36 36 36 36 36 36 36 35 35 34 34 34 33 33
31 31 31 31 32 33 34 35 36 35 35 36 36 37 37 37 38 39 40 40 39 39 38 38 37 36 36 36 36 37 37 37 37 37 36 37 36 35 34 34 34 34 34
32 32 32 32 33 33 34 35 36 36 37 38 38 39 39 39 40 41 41 41 41 40 40 39 37 36 36 36 37 37 38 38 38 38 36 36 36 36 35 34 35 35 35
33 33 33 34 35 35 36 37 37 38 39 39 40 40 40 40 41 42 43 43 43 42 41 40 39 39 38 37 38 38 38 38 38 38 38 37 36 36 36 36 36 36 35
32 32 33 34 35 35 36 37 38 39 40 40 41 41 41 41 42 43 43 43 43 42 41 40 40 39 39 39 39 39 39 39 38 38 38 37 37 36 36 36 36 36 36
32 33 33 33 35 36 37 38 39 39 39 40 40 42 42 43 44 44 43 43 42 42 42 42 41 41 41 40 40 40 40 40 39 38 38 37 37 37 36 36 36 36 36
32 33 35 36 36 37 38 39 40 39 39 40 40 41 42 43 44 44 44 43 43 43 43 43 43 43 43 42 42 42 41 40 39 38 38 38 38 38 37 37 37 37 36
33 34 35 37 38 39 39 39 38 39 39 39 40 41 42 43 43 44 44 43 44 44 44 44 44 43 44 43 43 42 41 40 39 39 39 39 38 38 38 38 37 36 36
35 36 37 38 39 39 39 38 39 39 39 40 41 41 42 42 43 44 44 43 43 44 44 45 44 44 44 44 43 42 40 40 39 39 38 38 38 38 38 37 36 36 36
35 37 37 38 38 38 38 38 38 38 38 38 39 39 40 40 41 42 42 41 41 42 42 42 42 42 42 42 40 40 40 39 38 38 38 38 38 38 38 37 36 36 36
Wind_Direction
290 301 298 289 314 324 342 345 340 337 341 342 336 331 331 331 331 330 329 327 327 326 326 327 327 328 329 329 327 325 324 323 322 319 318 317 314 310 308 307 307 305 303
278 282 283 274 277 291 307 315 321 324 325 328 327 328 328 326 325 326 324 323 324 323 324 326 327 328 328 326 324 322 322 322 321 319 316 314 313 310 306 305 304 304 303
273 272 274 271 274 283 292 296 301 311 317 320 320 320 322 323 323 322 322 323 323 323 325 326 326 325 326 325 323 322 321 320 319 317 316 313 312 309 307 305 303 301 301
274 269 270 269 275 279 281 287 295 301 307 312 313 314 317 319 321 322 322 321 320 320 320 321 322 323 324 323 322 322 320 320 319 317 315 313 311 308 307 305 303 301 299
271 267 268 269 275 278 278 285 290 293 294 299 303 307 310 313 317 318 319 320 319 318 317 317 318 319 320 320 320 321 321 320 319 317 315 312 310 307 306 305 304 303 299
270 269 271 275 276 276 281 281 285 288 288 291 296 300 303 306 307 309 312 314 316 315 314 315 315 316 316 317 317 318 319 318 317 315 313 311 311 309 307 307 306 304 301
265 266 270 274 279 280 278 280 282 286 287 289 292 296 298 300 303 305 308 310 311 312 312 312 312 314 313 314 315 315 315 315 315 314 314 312 311 310 309 307 305 305 303
265 268 271 275 277 280 275 277 281 282 285 287 289 290 294 297 299 301 304 307 308 309 310 310 311 313 313 314 314 314 313 314 314 313 313 312 310 308 308 308 305 301 300
266 268 270 274 275 277 275 276 281 283 287 288 291 292 297 296 296 299 300 303 305 307 308 309 309 311 312 312 313 313 313 314 315 313 312 311 310 309 308 306 305 302 299
267 266 268 271 272 273 275 276 282 285 287 290 291 292 294 294 295 297 298 299 301 303 306 307 307 308 310 311 311 311 311 312 313 312 311 311 311 310 309 307 305 302 300
264 266 266 269 271 271 274 277 280 283 285 287 290 291 293 294 294 296 297 298 300 303 304 305 305 305 306 307 307 307 308 309 310 310 309 309 309 309 309 308 306 303 300
263 266 267 269 270 271 274 277 281 282 283 285 289 292 294 294 294 296 297 297 299 300 301 302 302 302 302 303 303 303 305 307 308 309 308 307 307 307 307 308 306 304 302
264 267 268 268 270 272 274 276 278 280 281 284 286 289 291 292 293 295 295 296 297 297 298 300 301 301 300 301 301 301 302 304 307 307 306 304 304 304 305 306 306 305 303
266 267 269 270 270 271 272 274 277 279 280 284 286 287 290 291 292 293 293 294 296 296 296 297 297 298 299 300 300 299 301 303 304 306 305 303 302 302 303 304 305 305 303
269 269 270 272 273 272 272 273 275 280 282 283 285 288 290 289 290 291 293 293 295 296 297 296 296 296 297 298 299 299 300 302 303 303 302 301 300 301 301 302 302 302 301
269 269 270 271 272 273 276 275 276 279 282 283 285 288 290 289 289 290 292 292 293 296 296 296 296 295 295 295 296 296 298 299 301 301 301 301 299 299 299 299 299 299 299
269 268 269 269 273 275 276 277 278 279 282 284 286 287 288 288 289 291 292 293 294 295 296 295 295 295 294 294 295 296 297 297 298 299 300 300 298 296 296 297 297 297 297
272 271 271 272 273 274 276 277 278 280 282 284 285 286 287 288 289 290 292 294 295 295 295 295 295 295 294 294 295 297 297 296 296 298 298 298 297 295 295 294 295 295 295
271 272 272 273 273 274 276 277 279 281 283 284 285 286 287 288 288 289 290 291 292 293 293 293 293 293 293 293 295 296 296 295 295 296 296 297 297 296 294 293 293 294 294
271 271 271 272 273 273 275 277 279 281 282 284 285 286 287 288 288 287 288 289 289 290 291 291 292 292 293 294 295 296 296 295 295 295 294 294 295 295 294 293 292 293 293
272 273 273 273 274 276 277 279 281 282 283 285 286 287 287 287 288 289 288 288 288 289 290 291 291 291 292 294 294 294 295 294 294 294 294 293 294 294 293 293 292 291 291
275 275 275 275 277 278 280 281 282 284 285 287 289 288 288 289 290 289 289 290 291 290 290 290 290 290 291 292 293 293 293 293 292 293 293 292 291 292 293 293 293 292 291
278 277 277 278 280 281 282 283 284 286 288 289 290 290 289 290 291 290 290 291 290 290 291 290 289 289 290 291 291 291 291 290 290 290 290 291 290 290 290 291 292 292 290
279 280 280 280 281 281 282 284 285 286 288 289 290 292 292 292 293 293 292 292 290 289 289 289 290 289 289 289 290 290 290 289 289 289 289 289 290 289 288 290 291 290 289
280 282 283 284 283 283 284 285 286 287 288 289 291 292 293 294 294 294 293 292 291 289 288 288 288 288 289 289 288 288 288 287 288 288 288 288 288 289 288 289 289 288 288
280 282 283 285 284 284 284 284 285 287 288 290 292 293 294 295 296 295 294 292 291 290 289 288 288 288 288 288 288 287 287 288 288 288 288 287 288 288 287 287 288 288 288
Height
5896 5895 5895 5895 5894 5894 5893 5893 5892 5892 5891 5890 5890 5889 5888 5887 5886 5884 5883 5881 5880 5878 5876 5874 5872 5870 5868 5866 5863 5861 5859 5856 5854 5851 5849 5846 5844 5841 5839 5837 5835 5833 5831
5895 5895 5894 5894 5894 5893 5893 5892 5891 5891 5890 5889 5888 5888 5887 5885 5884 5883 5881 5880 5878 5876 5874 5872 5870 5868 5865 5863 5861 5858 5856 5853 5851 5848 5845 5843 5840 5838 5835 5833 5831 5829 5827
5893 5893 5893 5893 5892 5892 5891 5891 5890 5890 5889 5888 5887 5886 5885 5884 5882 5881 5879 5877 5875 5873 5871 5870 5867 5865 5863 5860 5858 5855 5852 5850 5847 5844 5841 5838 5836 5833 5831 5829 5826 5824 5822
5891 5891 5890 5890 5890 5890 5889 5889 5888 5888 5887 5886 5885 5884 5882 5881 5880 5878 5877 5875 5873 5871 5869 5867 5865 5862 5859 5857 5854 5851 5848 5846 5843 5840 5837 5834 5831 5829 5826 5824 5822 5819 5817
5888 5888 5888 5888 5887 5887 5886 5886 5886 5885 5884 5883 5882 5881 5880 5878 5877 5875 5874 5872 5870 5868 5866 5863 5861 5858 5856 5853 5850 5847 5844 5841 5838 5835 5832 5830 5827 5824 5821 5819 5816 5814 5811
5885 5885 5886 5885 5885 5884 5883 5883 5883 5882 5881 5880 5879 5878 5877 5875 5874 5872 5870 5868 5866 5864 5862 5859 5857 5854 5851 5848 5846 5843 5840 5837 5834 5831 5827 5824 5821 5819 5816 5813 5811 5808 5806
5881 5882 5882 5882 5881 5880 5880 5879 5879 5878 5877 5876 5875 5874 5873 5871 5870 5868 5866 5864 5862 5860 5857 5855 5852 5849 5846 5843 5841 5838 5834 5831 5829 5826 5822 5819 5816 5813 5810 5807 5805 5802 5800
5877 5877 5877 5877 5877 5876 5876 5875 5875 5874 5873 5871 5870 5869 5868 5867 5865 5863 5861 5859 5857 5855 5852 5850 5847 5844 5841 5838 5835 5832 5829 5826 5823 5820 5817 5813 5810 5807 5804 5801 5798 5796 5794
5872 5873 5873 5873 5873 5872 5871 5871 5871 5870 5869 5867 5866 5864 5863 5861 5860 5858 5856 5854 5852 5850 5847 5844 5841 5839 5836 5833 5830 5827 5823 5820 5817 5814 5811 5807 5804 5801 5798 5795 5792 5789 5787
5867 5867 5868 5868 5868 5868 5867 5867 5866 5865 5864 5862 5861 5860 5858 5856 5854 5852 5850 5848 5846 5844 5841 5838 5836 5833 5830 5827 5824 5821 5818 5814 5811 5807 5804 5801 5798 5794 5791 5788 5785 5782 5779
5861 5861 5862 5862 5862 5862 5862 5861 5860 5859 5858 5857 5855 5853 5852 5850 5848 5846 5844 5841 5839 5837 5834 5832 5829 5826 5823 5820 5817 5814 5811 5808 5804 5801 5797 5794 5791 5788 5784 5781 5778 5775 5772
5854 5855 5855 5855 5856 5856 5855 5855 5854 5853 5852 5850 5849 5847 5846 5843 5841 5839 5837 5834 5832 5830 5827 5825 5822 5819 5816 5813 5810 5807 5804 5801 5797 5794 5790 5787 5784 5781 5778 5774 5771 5768 5764
5847 5847 5848 5848 5848 5848 5848 5847 5847 5846 5844 5843 5842 5840 5839 5836 5834 5831 5829 5827 5824 5822 5819 5817 5814 5811 5808 5805 5802 5799 5796 5793 5789 5786 5783 5779 5776 5773 5770 5767 5763 5760 5757
5839 5840 5840 5840 5840 5839 5840 5839 5839 5837 5836 5835 5833 5832 5830 5828 5826 5823 5820 5818 5816 5813 5810 5808 5805 5803 5800 5797 5794 5791 5788 5785 5781 5778 5775 5771 5768 5765 5761 5758 5755 5752 5749
5830 5831 5831 5831 5831 5831 5831 5831 5830 5829 5828 5826 5824 5823 5821 5819 5817 5814 5812 5809 5806 5804 5801 5799 5796 5794 5791 5788 5785 5782 5779 5775 5772 5769 5766 5763 5759 5756 5753 5750 5746 5743 5740
5822 5823 5823 5823 5823 5822 5822 5821 5821 5820 5819 5817 5816 5814 5812 5810 5807 5805 5803 5800 5797 5795 5792 5790 5787 5784 5781 5779 5775 5772 5769 5766 5763 5760 5757 5753 5750 5747 5744 5740 5737 5734 5731
5813 5813 5814 5814 5814 5813 5812 5812 5812 5811 5809 5808 5806 5804 5802 5800 5798 5795 5793 5790 5787 5785 5782 5780 5777 5774 5771 5769 5765 5762 5760 5756 5753 5750 5747 5743 5740 5737 5733 5730 5727 5724 5722
5804 5804 5804 5804 5804 5804 5803 5802 5801 5800 5799 5798 5796 5794 5792 5790 5787 5785 5782 5780 5777 5774 5772 5769 5766 5764 5761 5758 5755 5752 5749 5746 5742 5739 5736 5733 5729 5726 5723 5720 5717 5714 5711
5795 5795 5795 5794 5794 5794 5793 5792 5791 5790 5788 5787 5785 5783 5781 5779 5776 5774 5771 5768 5766 5763 5761 5758 5755 5753 5750 5747 5744 5741 5738 5735 5732 5729 5726 5723 5719 5716 5713 5710 5707 5704 5701
5786 5785 5785 5784 5784 5783 5783 5782 5781 5779 5777 5775 5773 5771 5769 5767 5764 5762 5759 5757 5754 5752 5749 5746 5744 5741 5739 5736 5733 5730 5727 5724 5721 5718 5715 5712 5709 5706 5702 5700 5697 5694 5691
5776 5775 5775 5775 5774 5772 5772 5771 5770 5768 5766 5764 5762 5760 5757 5754 5752 5750 5747 5744 5742 5739 5737 5734 5732 5729 5727 5725 5722 5719 5716 5712 5710 5707 5704 5701 5698 5695 5692 5689 5686 5683 5680
5767 5766 5765 5765 5764 5763 5761 5760 5758 5756 5754 5752 5750 5748 5745 5743 5740 5737 5734 5732 5729 5727 5724 5722 5720 5717 5715 5713 5710 5707 5704 5701 5699 5696 5693 5690 5687 5684 5681 5678 5675 5672 5669
5757 5756 5756 5755 5754 5753 5751 5750 5748 5746 5744 5741 5739 5736 5734 5731 5728 5725 5722 5720 5717 5714 5712 5710 5708 5705 5703 5700 5697 5695 5692 5689 5687 5684 5681 5678 5676 5673 5670 5667 5665 5661 5659
5747 5746 5745 5745 5743 5742 5740 5738 5736 5734 5732 5730 5727 5724 5721 5718 5715 5712 5709 5706 5704 5701 5699 5697 5694 5692 5690 5687 5684 5681 5679 5676 5674 5672 5669 5666 5664 5661 5659 5656 5653 5650 5648
5738 5737 5735 5734 5732 5730 5729 5727 5725 5722 5720 5718 5715 5712 5709 5705 5702 5699 5695 5692 5690 5688 5685 5683 5681 5678 5676 5673 5671 5668 5666 5664 5661 5659 5657 5654 5651 5649 5647 5645 5642 5639 5637
5728 5727 5725 5723 5721 5720 5718 5716 5713 5711 5709 5706 5703 5700 5697 5693 5690 5686 5683 5679 5676 5674 5672 5669 5667 5664 5662 5660 5658 5656 5654 5651 5649 5646 5644 5642 5640 5637 5635 5633 5630 5628 5625